When you browse on this site, cookies collect data to enhance your experience and personalize the content and advertising you see.
Visit our Privacy Policy to learn more. By continuing to use the site, you agree to this use of cookies and data.
  • In Hungary
  • List of Countries
  • For 7 days
  • Water Temperature
  • Satellite Maps
  • Weather Map
  • News
  • Weather Widgets
  • user-avatar
    Login

    Hourly Weather Muscatine

    Today, 24 July, Wednesday

    Time Temperature Precipitation Wind Pressure Humidity
    00:00 +18°C° 0 mm 2 mps 749 mmHg 92%
    01:00 +17°C° 0 mm 2 mps 749 mmHg 92%
    02:00 +17°C° 0 mm 2 mps 749 mmHg 92%
    03:00 +18°C° 0 mm 1 mps 748 mmHg 92%
    04:00 +17°C° 0 mm 2 mps 749 mmHg 92%
    05:00 +17°C° 0 mm 2 mps 749 mmHg 93%
    06:00 +17°C° 0 mm 2 mps 749 mmHg 93%
    07:00 +19°C° 0 mm 2 mps 749 mmHg 89%
    08:00 +21°C° 0 mm 2 mps 750 mmHg 85%
    09:00 +24°C° 0 mm 2 mps 750 mmHg 80%
    10:00 +25°C° 0 mm 2 mps 750 mmHg 76%
    11:00 +26°C° 0 mm 2 mps 750 mmHg 71%
    12:00 +27°C° 0 mm 2 mps 749 mmHg 66%
    13:00 +27°C° 0 mm 2 mps 749 mmHg 66%
    14:00 +28°C° 0 mm 2 mps 749 mmHg 65%
    15:00 +28°C° 0 mm 2 mps 748 mmHg 64%
    16:00 +27°C° 0.4 mm 2 mps 748 mmHg 70%
    17:00 +27°C° 0.4 mm 1 mps 748 mmHg 75%
    18:00 +26°C° 0.4 mm 1 mps 748 mmHg 81%
    19:00 +24°C° 0 mm 1 mps 748 mmHg 83%
    20:00 +23°C° 0 mm 1 mps 748 mmHg 85%
    21:00 +21°C° 0 mm 1 mps 748 mmHg 87%
    22:00 +21°C° 0 mm 1 mps 748 mmHg 87%
    23:00 +20°C° 0 mm 1 mps 748 mmHg 88%

    Tomorrow, 25 July, Thursday

    Time Temperature Precipitation Wind Pressure Humidity
    00:00 +20°C° 0 mm 1 mps 748 mmHg 88%
    01:00 +19°C° 0 mm 1 mps 748 mmHg 89%
    02:00 +19°C° 0 mm 1 mps 748 mmHg 89%
    03:00 +19°C° 0 mm 1 mps 748 mmHg 90%
    04:00 +19°C° 0 mm 1 mps 749 mmHg 90%
    05:00 +19°C° 0 mm 1 mps 749 mmHg 91%
    06:00 +20°C° 0 mm 1 mps 749 mmHg 91%
    07:00 +21°C° 0 mm 1 mps 749 mmHg 88%
    08:00 +23°C° 0 mm 1 mps 749 mmHg 84%
    09:00 +24°C° 0 mm 2 mps 749 mmHg 81%
    10:00 +25°C° 0 mm 2 mps 749 mmHg 78%
    11:00 +26°C° 0 mm 2 mps 749 mmHg 74%
    12:00 +27°C° 0 mm 2 mps 749 mmHg 71%
    13:00 +27°C° 0.1 mm 2 mps 748 mmHg 73%
    14:00 +27°C° 0.1 mm 2 mps 748 mmHg 75%
    15:00 +27°C° 0.1 mm 2 mps 748 mmHg 77%
    16:00 +27°C° 0.3 mm 2 mps 748 mmHg 80%
    17:00 +26°C° 0.3 mm 2 mps 748 mmHg 82%
    18:00 +26°C° 0.3 mm 1 mps 748 mmHg 84%
    19:00 +25°C° 0 mm 2 mps 748 mmHg 86%
    20:00 +23°C° 0 mm 2 mps 748 mmHg 87%
    21:00 +21°C° 0 mm 3 mps 747 mmHg 89%
    22:00 +21°C° 0 mm 3 mps 748 mmHg 91%
    23:00 +20°C° 0 mm 3 mps 748 mmHg 92%

    Day after tomorrow, 26 July, Friday

    Time Temperature Precipitation Wind Pressure Humidity
    00:00 +20°C° 0 mm 3 mps 748 mmHg 94%
    01:00 +20°C° 0 mm 3 mps 748 mmHg 94%
    02:00 +19°C° 0 mm 3 mps 748 mmHg 95%
    03:00 +19°C° 0 mm 3 mps 748 mmHg 96%
    04:00 +19°C° 0 mm 3 mps 748 mmHg 96%
    05:00 +19°C° 0 mm 3 mps 748 mmHg 96%
    06:00 +19°C° 0 mm 3 mps 748 mmHg 96%
    07:00 +21°C° 0 mm 3 mps 748 mmHg 92%
    08:00 +22°C° 0 mm 4 mps 748 mmHg 89%
    09:00 +25°C° 0 mm 4 mps 748 mmHg 86%
    10:00 +26°C° 0.1 mm 4 mps 748 mmHg 81%
    11:00 +28°C° 0.1 mm 5 mps 748 mmHg 76%
    12:00 +29°C° 0.1 mm 5 mps 748 mmHg 71%
    13:00 +29°C° 0.1 mm 5 mps 748 mmHg 72%
    14:00 +29°C° 0.1 mm 5 mps 748 mmHg 73%
    15:00 +29°C° 0.1 mm 5 mps 748 mmHg 74%
    16:00 +28°C° 0 mm 5 mps 747 mmHg 77%
    17:00 +28°C° 0 mm 4 mps 747 mmHg 81%
    18:00 +27°C° 0 mm 4 mps 747 mmHg 84%
    19:00 +26°C° 0 mm 4 mps 747 mmHg 87%
    20:00 +25°C° 0 mm 4 mps 748 mmHg 90%
    21:00 +22°C° 0 mm 4 mps 748 mmHg 93%
    22:00 +22°C° 0 mm 4 mps 748 mmHg 94%
    23:00 +21°C° 0 mm 4 mps 748 mmHg 94%

    27 July, Saturday

    Time Temperature Precipitation Wind Pressure Humidity
    00:00 +21°C° 0 mm 4 mps 747 mmHg 94%
    01:00 +20°C° 0 mm 3 mps 747 mmHg 95%
    02:00 +20°C° 0 mm 3 mps 747 mmHg 95%
    03:00 +20°C° 0 mm 3 mps 747 mmHg 95%
    04:00 +20°C° 0 mm 3 mps 748 mmHg 94%
    05:00 +20°C° 0 mm 3 mps 748 mmHg 94%
    06:00 +20°C° 0 mm 3 mps 748 mmHg 93%
    07:00 +22°C° 0 mm 4 mps 748 mmHg 88%
    08:00 +23°C° 0 mm 4 mps 748 mmHg 83%
    09:00 +26°C° 0 mm 5 mps 748 mmHg 79%
    10:00 +27°C° 0 mm 5 mps 748 mmHg 77%
    11:00 +28°C° 0 mm 5 mps 748 mmHg 74%
    12:00 +29°C° 0 mm 5 mps 748 mmHg 72%
    13:00 +29°C° 0 mm 5 mps 747 mmHg 72%
    14:00 +29°C° 0 mm 5 mps 747 mmHg 72%
    15:00 +30°C° 0 mm 6 mps 747 mmHg 72%
    16:00 +29°C° 0 mm 5 mps 746 mmHg 76%
    17:00 +29°C° 0 mm 4 mps 746 mmHg 80%
    18:00 +28°C° 0 mm 4 mps 746 mmHg 84%
    19:00 +27°C° 0 mm 4 mps 746 mmHg 86%
    20:00 +25°C° 0 mm 3 mps 746 mmHg 88%
    21:00 +24°C° 0 mm 3 mps 746 mmHg 90%
    22:00 +22°C° 0 mm 3 mps 746 mmHg 91%
    23:00 +22°C° 0 mm 3 mps 746 mmHg 92%

    28 July, Sunday

    Time Temperature Precipitation Wind Pressure Humidity
    00:00 +22°C° 0 mm 3 mps 746 mmHg 93%
    01:00 +21°C° 0 mm 3 mps 746 mmHg 92%
    02:00 +21°C° 0 mm 3 mps 746 mmHg 92%
    03:00 +20°C° 0 mm 3 mps 746 mmHg 92%
    04:00 +20°C° 0 mm 3 mps 746 mmHg 91%
    05:00 +20°C° 0 mm 4 mps 746 mmHg 91%
    06:00 +21°C° 0 mm 4 mps 746 mmHg 90%
    07:00 +22°C° 0 mm 4 mps 746 mmHg 88%
    08:00 +25°C° 0 mm 5 mps 746 mmHg 85%
    09:00 +26°C° 0 mm 5 mps 746 mmHg 82%
    10:00 +27°C° 0 mm 5 mps 746 mmHg 80%
    11:00 +28°C° 0 mm 6 mps 746 mmHg 78%
    12:00 +29°C° 0 mm 6 mps 746 mmHg 76%
    13:00 +30°C° 0.2 mm 6 mps 745 mmHg 76%
    14:00 +30°C° 0.2 mm 5 mps 745 mmHg 77%
    15:00 +30°C° 0.2 mm 5 mps 745 mmHg 77%
    16:00 +29°C° 0.3 mm 5 mps 744 mmHg 80%
    17:00 +29°C° 0.3 mm 4 mps 744 mmHg 83%
    18:00 +28°C° 0.3 mm 3 mps 744 mmHg 86%
    19:00 +27°C° 0.1 mm 3 mps 744 mmHg 87%
    20:00 +26°C° 0.1 mm 3 mps 744 mmHg 89%
    21:00 +25°C° 0.1 mm 3 mps 744 mmHg 91%
    22:00 +25°C° 0.2 mm 3 mps 744 mmHg 90%
    23:00 +23°C° 0.2 mm 4 mps 744 mmHg 90%

    29 July, Monday

    Time Temperature Precipitation Wind Pressure Humidity
    00:00 +23°C° 0.2 mm 4 mps 743 mmHg 89%
    01:00 +22°C° 0.8 mm 4 mps 743 mmHg 90%
    02:00 +22°C° 0.8 mm 5 mps 743 mmHg 92%
    03:00 +21°C° 0.8 mm 5 mps 744 mmHg 93%
    04:00 +21°C° 0.1 mm 4 mps 744 mmHg 94%
    05:00 +21°C° 0.1 mm 3 mps 744 mmHg 95%
    06:00 +21°C° 0.1 mm 2 mps 744 mmHg 96%
    07:00 +23°C° 0 mm 2 mps 744 mmHg 95%
    08:00 +24°C° 0 mm 3 mps 744 mmHg 93%
    09:00 +24°C° 0 mm 3 mps 744 mmHg 92%
    10:00 +25°C° 0.2 mm 3 mps 744 mmHg 89%
    11:00 +26°C° 0.2 mm 3 mps 744 mmHg 87%
    12:00 +27°C° 0.2 mm 3 mps 744 mmHg 85%
    13:00 +27°C° 0.7 mm 3 mps 743 mmHg 86%
    14:00 +27°C° 0.7 mm 3 mps 743 mmHg 86%
    15:00 +27°C° 0.7 mm 4 mps 743 mmHg 87%
    16:00 +27°C° 0.7 mm 3 mps 743 mmHg 89%
    17:00 +27°C° 0.7 mm 3 mps 742 mmHg 91%
    18:00 +26°C° 0.7 mm 2 mps 742 mmHg 92%
    19:00 +25°C° 0.2 mm 2 mps 742 mmHg 93%
    20:00 +24°C° 0.2 mm 2 mps 743 mmHg 94%
    21:00 +24°C° 0.2 mm 2 mps 743 mmHg 95%
    22:00 +23°C° 0 mm 1 mps 743 mmHg 96%
    23:00 +23°C° 0 mm 1 mps 743 mmHg 96%
    Show more